Weather History for KGFA - February, 2014

Change the Weather History Date:

Sunday, February 23, 2014

  Actual Average (KGTF) Record (KGTF)
Temperature  
Mean Temperature 6 °F 28 °F  
Max Temperature 8 °F 40 °F 63 °F (1921)
Min Temperature 3 °F 17 °F -23 °F (1922)
Degree Days  
Heating Degree Days 60 37  
Month to date heating degree days 876  
Since 1 July heating degree days 5327  
Cooling Degree Days 0 0  
Month to date cooling degree days 0  
Year to date cooling degree days 0  
Moisture  
Dew Point 0 °F    
Average Humidity 77    
Maximum Humidity 85    
Minimum Humidity 67    
Precipitation  
Precipitation 0.10 in 0.02 in 0.45 in (2007)
Month to date precipitation 0.38  
Year to date precipitation 0.89  
Snow  
Snow 0.00 in 0.30 in 7.70 in (2007)
Month to date snowfall 6.7  
Since 1 July snowfall 38.5  
Snow Depth -    
Sea Level Pressure  
Sea Level Pressure 30.26 in    
Wind  
Wind Speed 9 mph (North)    
Max Wind Speed 14 mph    
Max Gust Speed -    
Visibility 2 miles    
Events Snow    
T = Trace of Precipitation, MM = Missing Value Source: NWS Daily Summary

Daily Weather History Graph

Daily Weather History Graph

Search for Another Location

Airport or City:

Trip Planner

Search our weather history database for the weather conditions in past years. The results will help you decide how hot, cold, wet, or windy it might be!

Date:

Astronomy

Feb. 23, 2014 Rise Set
Actual Time 7:16 AM MST 6:00 PM MST
Civil Twilight 6:44 AM MST 6:31 PM MST
Nautical Twilight 6:09 AM MST 7:07 PM MST
Astronomical Twilight 5:33 AM MST 7:43 PM MST
Moon 2:30 AM MST (2/23) 11:53 AM MST (2/23)
Length of Visible Light 11h 46m
Length of Day
10h 44m
Last Quarter, 38% of the Moon is Illuminated
Feb 23
Last Quarter
Mar 1
New
Mar 8
First Quarter
Mar 16
Full
Mar 23
Last Quarter

Hourly Weather History & Observations

Time (MST) Temp. Windchill Dew Point Humidity Pressure Visibility Wind Dir Wind Speed Gust Speed Precip Events Conditions
12:56 AM 8.1 °F -7.0 °F 3.9 °F 83% 30.40 in 7.0 mi North 11.5 mph - N/A   Overcast
1:41 AM 8.6 °F -7.0 °F 3.2 °F 79% 30.10 in 2.0 mi North 12.7 mph - 0.00 in Snow Light Snow
1:49 AM 8.6 °F -6.3 °F 3.2 °F 79% 30.10 in 1.5 mi North 11.5 mph - 0.00 in Snow Light Snow
1:56 AM 8.1 °F -7.0 °F 3.9 °F 83% 30.40 in 1.5 mi North 11.5 mph - 0.00 in Snow Light Snow
2:10 AM 8.6 °F -5.5 °F 3.2 °F 79% 30.11 in 1.2 mi North 10.4 mph - 0.00 in Snow Light Snow
2:18 AM 8.6 °F -5.5 °F 3.2 °F 79% 30.11 in 1.5 mi North 10.4 mph - 0.00 in Snow Light Snow
2:49 AM 8.6 °F -5.5 °F 3.2 °F 79% 30.12 in 1.2 mi North 10.4 mph - 0.00 in Snow Light Snow
2:56 AM 8.1 °F -8.4 °F 3.0 °F 80% 30.43 in 1.2 mi North 13.8 mph - 0.00 in Snow Light Snow
3:27 AM 6.8 °F -8.6 °F 3.2 °F 85% 30.12 in 1.5 mi North 11.5 mph - 0.00 in Snow Light Snow
3:40 AM 6.8 °F -7.8 °F 3.2 °F 85% 30.13 in 2.0 mi North 10.4 mph - 0.00 in Snow Light Snow
3:47 AM 6.8 °F -9.3 °F 3.2 °F 85% 30.13 in 1.5 mi North 12.7 mph - 0.00 in Snow Light Snow
3:56 AM 7.0 °F -9.1 °F 1.9 °F 80% 30.44 in 1.5 mi North 12.7 mph - 0.00 in Snow Light Snow
4:41 AM 6.8 °F -8.6 °F 1.4 °F 79% 30.15 in 1.5 mi North 11.5 mph - 0.00 in Snow Light Snow
4:56 AM 6.1 °F -8.7 °F 1.9 °F 83% 30.46 in 2.0 mi North 10.4 mph - 0.00 in Snow Light Snow
5:15 AM 6.8 °F -6.9 °F 1.4 °F 79% 30.16 in 1.8 mi North 9.2 mph - 0.00 in Snow Light Snow
5:56 AM 6.1 °F -8.7 °F 1.9 °F 83% 30.48 in 1.2 mi North 10.4 mph - 0.00 in Snow Light Snow
6:08 AM 6.8 °F -8.6 °F 1.4 °F 79% 30.16 in 1.8 mi North 11.5 mph - 0.00 in Snow Light Snow
6:15 AM 6.8 °F -6.9 °F 1.4 °F 79% 30.17 in 2.0 mi North 9.2 mph - 0.00 in Snow Light Snow
6:28 AM 6.8 °F -8.6 °F 1.4 °F 79% 30.17 in 6.0 mi North 11.5 mph - 0.00 in Snow Light Snow
6:47 AM 6.8 °F -8.6 °F 1.4 °F 79% 30.17 in 3.0 mi North 11.5 mph - 0.00 in Snow Light Snow
6:56 AM 6.1 °F -9.5 °F 1.0 °F 80% 30.49 in 2.0 mi North 11.5 mph - 0.00 in Snow Light Snow
7:12 AM 6.8 °F -6.9 °F 1.4 °F 79% 30.18 in 1.0 mi North 9.2 mph - 0.00 in Snow Light Snow
7:28 AM 6.8 °F -6.9 °F 1.4 °F 79% 30.18 in 0.8 mi North 9.2 mph - 0.00 in Snow Light Snow
7:38 AM 5.0 °F -8.1 °F 1.4 °F 85% 30.19 in 1.0 mi North 8.1 mph - 0.00 in Snow Light Snow
7:56 AM 5.0 °F -9.1 °F -0.0 °F 80% 30.51 in 1.2 mi North 9.2 mph - 0.00 in Snow Light Snow
8:19 AM 5.0 °F -10.0 °F -0.4 °F 78% 30.20 in 0.8 mi North 10.4 mph - 0.00 in Snow Light Snow
8:32 AM 5.0 °F -10.0 °F -0.4 °F 78% 30.20 in 1.8 mi North 10.4 mph - 0.00 in Snow Light Snow
8:36 AM 5.0 °F -10.0 °F -0.4 °F 78% 30.20 in 3.0 mi North 10.4 mph - 0.00 in Snow Light Snow
8:56 AM 5.0 °F -9.1 °F -0.9 °F 76% 30.54 in 2.0 mi NNW 9.2 mph - 0.00 in Snow Light Snow
9:05 AM 5.0 °F -9.1 °F -0.4 °F 78% 30.20 in 1.5 mi NNW 9.2 mph - 0.00 in Snow Light Snow
9:15 AM 3.2 °F -12.2 °F -0.4 °F 85% 30.20 in 1.2 mi NNW 10.4 mph - 0.00 in Snow Light Snow
9:28 AM 3.2 °F -12.2 °F -2.2 °F 78% 30.21 in 3.0 mi NNW 10.4 mph - 0.00 in Snow Light Snow
9:37 AM 5.0 °F -10.0 °F -2.2 °F 72% 30.21 in 9.0 mi NNW 10.4 mph - 0.00 in   Overcast
9:56 AM 5.0 °F -10.0 °F -2.0 °F 73% 30.54 in 9.0 mi NNW 10.4 mph - 0.00 in   Overcast
10:15 AM 5.0 °F -9.1 °F -2.2 °F 72% 30.21 in 2.0 mi North 9.2 mph - 0.00 in Snow Light Snow
10:27 AM 5.0 °F -8.1 °F -2.2 °F 72% 30.22 in 2.0 mi NNW 8.1 mph - 0.00 in Snow Light Snow
10:38 AM 5.0 °F -9.1 °F -2.2 °F 72% 30.21 in 2.5 mi North 9.2 mph - 0.00 in Snow Light Snow
10:46 AM 5.0 °F -8.1 °F -2.2 °F 72% 30.21 in 3.0 mi North 8.1 mph - 0.00 in Snow Light Snow
10:56 AM 6.1 °F -7.8 °F -2.0 °F 69% 30.54 in 3.0 mi North 9.2 mph - 0.00 in Snow Light Snow
11:05 AM 6.8 °F -6.9 °F -2.2 °F 67% 30.21 in 2.0 mi NNW 9.2 mph - 0.00 in Snow Light Snow
11:19 AM 6.8 °F -5.9 °F -2.2 °F 67% 30.21 in 3.0 mi North 8.1 mph - 0.00 in Snow Light Snow
11:43 AM 6.8 °F -6.9 °F -2.2 °F 67% 30.20 in 5.0 mi North 9.2 mph - 0.00 in Snow Light Snow
11:51 AM 6.8 °F -5.9 °F -2.2 °F 67% 30.20 in 5.0 mi North 8.1 mph - 0.00 in Snow Light Snow
11:56 AM 6.1 °F -6.8 °F -2.0 °F 69% 30.54 in 4.0 mi North 8.1 mph - 0.00 in Snow Light Snow
12:29 PM 6.8 °F -4.8 °F -2.2 °F 67% 30.19 in 1.8 mi North 6.9 mph - 0.00 in Snow Light Snow
12:44 PM 6.8 °F -2.0 °F -0.4 °F 72% 30.18 in 1.8 mi North 4.6 mph - 0.00 in Snow Light Snow
12:56 PM 6.1 °F -4.3 °F -0.9 °F 73% 30.52 in 1.5 mi North 5.8 mph - 0.00 in Snow Light Snow
1:13 PM 6.8 °F -2.0 °F -0.4 °F 72% 30.18 in 1.8 mi North 4.6 mph - 0.00 in Snow Light Snow
1:20 PM 6.8 °F -2.0 °F -0.4 °F 72% 30.18 in 2.0 mi North 4.6 mph - 0.00 in Snow Light Snow
1:27 PM 6.8 °F -3.5 °F -0.4 °F 72% 30.17 in 1.8 mi NNE 5.8 mph - 0.00 in Snow Light Snow
1:44 PM 6.8 °F -3.5 °F -0.4 °F 72% 30.16 in 2.0 mi North 5.8 mph - 0.00 in Snow Light Snow
1:56 PM 6.1 °F -2.8 °F -2.0 °F 69% 30.51 in 4.0 mi North 4.6 mph - 0.00 in Snow Light Snow
2:10 PM 6.8 °F -2.0 °F -0.4 °F 72% 30.16 in 1.8 mi NNE 4.6 mph - 0.00 in Snow Light Snow
2:30 PM 6.8 °F -3.5 °F -0.4 °F 72% 30.15 in 2.0 mi North 5.8 mph - 0.00 in Snow Light Snow
2:40 PM 6.8 °F -3.5 °F -0.4 °F 72% 30.15 in 2.0 mi North 5.8 mph - 0.00 in Snow Light Snow
2:52 PM 6.8 °F -3.5 °F -0.4 °F 72% 30.14 in 3.0 mi NNW 5.8 mph - 0.00 in Snow Light Snow
2:56 PM 7.0 °F -3.3 °F -0.0 °F 73% 30.48 in 3.0 mi North 5.8 mph - 0.00 in Snow Light Snow
3:11 PM 6.8 °F -4.8 °F -0.4 °F 72% 30.15 in 2.0 mi North 6.9 mph - 0.00 in Snow Light Snow
3:18 PM 6.8 °F -2.0 °F -0.4 °F 72% 30.15 in 1.8 mi North 4.6 mph - 0.00 in Snow Light Snow
3:25 PM 6.8 °F -2.0 °F -0.4 °F 72% 30.14 in 2.0 mi NNW 4.6 mph - 0.00 in Snow Light Snow
3:42 PM 6.8 °F -2.0 °F -0.4 °F 72% 30.13 in 1.0 mi North 4.6 mph - 0.00 in Snow Light Snow
3:56 PM 7.0 °F -3.3 °F 1.0 °F 77% 30.47 in 1.2 mi North 5.8 mph - 0.00 in Snow Light Snow
4:40 PM 6.8 °F -2.0 °F 1.4 °F 79% 30.14 in 0.8 mi NW 4.6 mph - 0.01 in Snow Light Snow
4:56 PM 6.1 °F -0.9 °F -0.0 °F 76% 30.48 in 0.8 mi NNW 3.5 mph - 0.01 in Snow Light Snow
5:19 PM 6.8 °F - 1.4 °F 79% 30.13 in 1.0 mi Calm Calm - 0.01 in Snow Light Snow
5:45 PM 6.8 °F - 1.4 °F 79% 30.13 in 0.8 mi Calm Calm - 0.01 in Snow Light Snow
5:56 PM 6.1 °F - 1.0 °F 80% 30.47 in 1.0 mi Calm Calm - 0.02 in Snow Light Snow
6:05 PM 6.8 °F - 1.4 °F 79% 30.12 in 0.8 mi Calm Calm - 0.00 in Snow Light Snow
6:15 PM 6.8 °F - 1.4 °F 79% 30.11 in 1.2 mi Calm Calm - 0.00 in Snow Light Snow
6:56 PM 6.1 °F -0.9 °F 1.0 °F 80% 30.46 in 1.5 mi West 3.5 mph - 0.01 in Snow Light Snow
7:56 PM 6.1 °F -4.3 °F 1.0 °F 80% 30.45 in 1.5 mi WNW 5.8 mph - 0.01 in Snow Light Snow
8:56 PM 6.1 °F -4.3 °F 1.9 °F 83% 30.45 in 1.2 mi West 5.8 mph - 0.02 in Snow Light Snow
9:56 PM 6.1 °F -6.8 °F 1.0 °F 80% 30.44 in 1.0 mi WNW 8.1 mph - 0.01 in Snow Light Snow
10:56 PM 6.1 °F -6.8 °F 1.0 °F 80% 30.44 in 1.2 mi WNW 8.1 mph - 0.01 in Snow Light Snow
11:56 PM 6.1 °F -4.3 °F 1.9 °F 83% 30.45 in 1.5 mi NW 5.8 mph - 0.01 in Snow Light Snow